Location: Azul
(36.7830°S, 59.8500°W)
Time: 02:47:19
(UTC-03:00)

UWE-3 - Pass Details

Date: 01 November 2021
Orbit: 584 x 681 km, 97.7° (Epoch: 04 December)

Event Time Altitude Azimuth Distance (km) Brightness Sun altitude
Exits shadow 03:36:21 - 39° (NE) 2,073 ? -24.4°
Reaches altitude 10° 03:36:30 10° 40° (NE) 2,019 ? -24.4°
Maximum altitude 03:40:36 39° 108° (ESE) 984 ? -23.8°
Drops below altitude 10° 03:44:51 10° 176° (S) 2,102 ? -23.2°
Sets 03:47:14 0° 183° (S) 3,037 ? -22.8°
